Regional Weather Roundup
Issued by NWS

Home | Current Version | Previous Version | Graphics & Text | Print | Product List | Glossary On
Versions: 1 2 3 4 5 6 7 8 9 10 11 12 13 14 15 16 17 18 19 20 21 22 23 24 25 26 27 28 29 30 31 32 33 34 35 36 37 38 39 40 41 42 43 44 45 46 47 48 49 50
000
ASUS43 KIND 221609
RWRIN

WEATHER ROUNDUP FOR INDIANA
NATIONAL WEATHER SERVICE INDIANAPOLIS IN
1200 PM EDT MON SEP 22 2014

NOTE: "FAIR" INDICATES FEW OR NO CLOUDS BELOW 12,000 FEET WITH NO
SIGNIFICANT WEATHER AND/OR OBSTRUCTIONS TO VISIBILITY.

* - STATION DOES NOT REPORT WEATHER SUCH AS PRECIPITATION OR FOG.

+ - STATION NOT QUALITY CONTROLLED BY THE NATIONAL WEATHER SERVICE.
    USE DATA WITH CAUTION...ESPECIALLY DEWPOINT AND RELATIVE
    HUMIDITY OBSERVATIONS.

INZ001>003-010>013-019-020-221700-
NORTHWEST INDIANA

CITY           SKY/WX    TMP DP  RH WIND       PRES   REMARKS
GARY /AIRPORT/ MOSUNNY   59  45  58 N7        30.30R
KNOX *+        MOSUNNY   56  44  64 NW5       30.28R
LA PORTE +     MOSUNNY   56  44  63 N8        30.29R
MICHIGAN CITY+ MOSUNNY   55  41  58 N8        30.29S
MONTICELLO +   MOSUNNY   57  46  66 N9        30.27S
RENSSELAER +   MOSUNNY   57  46  67 N6        30.30S
VALPARAISO     MOSUNNY   59  44  57 N10       30.29S

$$

LMZ046-743>745-221700-
SOUTHERN LAKE MICHIGAN

STATION/POSITION TIME  TEMP WIND        PRES
                       AIR  DIR/SP/G
                 (UTC) (F)  (DEG/KT/KT) (MB)
MICHIGAN CITY    1600   56  310/  1/  3   N/A

$$

INZ004-005-014>016-021>024-221700-
NORTH CENTRAL INDIANA

CITY           SKY/WX    TMP DP  RH WIND       PRES   REMARKS
ELKHART        SUNNY     55  39  54 N6        30.27R
GOSHEN         SUNNY    N/A N/A N/A W10       30.26S
LOGANSPORT +   MOSUNNY   55  43  62 N7        30.28S
PERU/GRISSOM   SUNNY     55  46  71 N8        30.27S
ROCHESTER +    SUNNY     57  43  58 N3        30.27S
SOUTH BEND     SUNNY     58  42  55 NW10      30.27S
WARSAW +       SUNNY     54  41  62 N7        30.26S

$$

INZ006>009-017-018-025>027-221700-
NORTHEAST INDIANA

CITY           SKY/WX    TMP DP  RH WIND       PRES   REMARKS
ANGOLA *+      SUNNY     54  45  71 VRB3      30.25R
FORT WAYNE     MOSUNNY   55  40  56 N6        30.26F
HUNTINGTON +   SUNNY     53  41  64 W3        30.26S

$$

INZ028-029-035-036-043>045-051>053-221700-
WEST CENTRAL INDIANA

CITY           SKY/WX    TMP DP  RH WIND       PRES   REMARKS
GREENCASTLE +  SUNNY     55  45  67 NE6       30.29S
LAFAYETTE      PTSUNNY   56  46  69 NW6       30.28S
TERRE HAUTE    SUNNY     60  44  55 N7        30.28F

$$

INZ030>032-037>040-046>048-054>057-064-065-221700-
CENTRAL INDIANA

CITY           SKY/WX    TMP DP  RH WIND       PRES   REMARKS
ANDERSON       MOSUNNY   52  39  62 NE10      30.29R
CP ATTERBURY + PTSUNNY   57  43  58 N8        30.27F
FRANKFORT +    MOSUNNY   57  45  64 N8        30.28S
INDIANAPOLIS   MOSUNNY   56  42  59 N9        30.27S
-EAGLE CREEK   MOSUNNY   56  42  59 NE8       30.26F
KOKOMO *+      SUNNY     57  43  58 N7        30.27F
MARION +       SUNNY     53  38  57 CALM      30.27F
MT COMFORT *+  MOSUNNY   54  36  50 NW10      30.27F
SHELBYVILLE    SUNNY     56  41  57 VRB6      30.27S
ZIONSVILLE +   SUNNY     55  42  61 N9        30.27F

$$

INZ033-034-041-042-049-050-058-059-221700-
EAST CENTRAL INDIANA

CITY           SKY/WX    TMP DP  RH WIND       PRES   REMARKS
MUNCIE         MOSUNNY   53  40  61 E3        30.27S

$$

INZ060-061-067>069-081>083-085>088-221700-
SOUTHWEST INDIANA

CITY           SKY/WX    TMP DP  RH WIND       PRES   REMARKS
EVANSVILLE     MOSUNNY   64  49  57 NE12      30.28R
WASHINGTON +   MOSUNNY   61  48  63 N8        30.27F

$$

INZ062-063-066-070>080-084-089>092-221700-
SOUTH CENTRAL AND SOUTHEAST INDIANA

CITY           SKY/WX    TMP DP  RH WIND       PRES   REMARKS
BEDFORD +      SUNNY     57  43  58 N8        30.27S
BLOOMINGTON    MOSUNNY   58  45  62 N10       30.27S

$$




USA.gov is the U.S. government's official web portal to all federal, state and local government web resources and services.